Chipley, FL

1:08 AM CDT on April 29, 2017 (GMT -0500)
Chipley

Weather History for KVSH - February, 2014

Change the Weather History Date:

Sunday, February 2, 2014

  Actual Average (KDHN) Record (KDHN)
Temperature  
Mean Temperature - -  
Max Temperature - 66 °F 80 °F (1950)
Min Temperature - 46 °F 14 °F (1951)
Moisture  
Dew Point -    
Average Humidity    
Maximum Humidity    
Minimum Humidity    
Precipitation  
Precipitation 0.00 in - - ()
Sea Level Pressure  
Sea Level Pressure 29.98 in    
Wind  
Wind Speed 6 mph (SSE)    
Max Wind Speed 13 mph    
Max Gust Speed 20 mph    
Visibility 5 miles    
Events      
Averages and records for this station are not official NWS values.
T = Trace of Precipitation, MM = Missing Value Source: NWS Daily Summary

Daily Weather History Graph

Daily Weather History Graph

Search for Another Location

Airport or City:

Trip Planner

Search our weather history database for the weather conditions in past years. The results will help you decide how hot, cold, wet, or windy it might be!

Date:

Astronomy

Feb. 02, 2014 Rise Set
Actual Time 6:33 AM CST 5:19 PM CST
Civil Twilight 6:08 AM CST 5:44 PM CST
Nautical Twilight 5:39 AM CST 6:13 PM CST
Astronomical Twilight 5:10 AM CST 6:41 PM CST
Moon 8:15 AM CST (2/2) 8:44 PM CST (2/2)
Length of Visible Light 11h 36m
Length of Day
10h 46m
Waxing Crescent, 11% of the Moon is Illuminated
Feb 2
Waxing Crescent
Feb 6
First Quarter
Feb 14
Full
Feb 22
Last Quarter
Mar 1
New

Hourly Weather History & Observations

Time (CST) Temp. Dew Point Humidity Pressure Visibility Wind Dir Wind Speed Gust Speed Precip Events Conditions
12:15 AM - - N/A% 30.02 in 8.0 mi Calm Calm - N/A   Overcast
12:35 AM - - N/A% 30.02 in 7.0 mi East 4.6 mph - N/A   Overcast
12:55 AM - - N/A% 30.02 in 3.0 mi Calm Calm - N/A   Overcast
1:15 AM - - N/A% 30.02 in 2.5 mi Calm Calm - N/A   Overcast
1:35 AM - - N/A% 30.02 in 1.8 mi ESE 5.8 mph - N/A   Overcast
1:55 AM - - N/A% 30.02 in 1.5 mi South 3.5 mph - N/A   Overcast
2:15 AM - - N/A% 30.02 in 2.0 mi Calm Calm - N/A   Overcast
2:35 AM - - N/A% 30.02 in 2.5 mi ESE 4.6 mph - N/A   Overcast
2:55 AM - - N/A% 30.02 in 2.5 mi SE 6.9 mph - N/A   Overcast
3:15 AM - - N/A% 30.02 in 3.0 mi SE 5.8 mph - N/A   Overcast
3:35 AM - - N/A% 30.01 in 1.5 mi SE 6.9 mph - N/A   Overcast
3:55 AM - - N/A% 30.02 in 1.2 mi SE 5.8 mph - N/A   Overcast
4:15 AM - - N/A% 30.01 in 1.2 mi ESE 6.9 mph - N/A   Overcast
4:35 AM - - N/A% 30.02 in 1.0 mi SE 6.9 mph - N/A   Overcast
4:55 AM - - N/A% 30.01 in 1.5 mi SE 6.9 mph - N/A   Overcast
5:15 AM - - N/A% 30.02 in 1.5 mi SE 8.1 mph - N/A   Overcast
5:35 AM - - N/A% 30.02 in 2.0 mi ESE 5.8 mph - N/A   Overcast
5:55 AM - - N/A% 30.02 in 2.0 mi SE 5.8 mph - N/A   Overcast
6:15 AM - - N/A% 30.02 in 1.8 mi SE 6.9 mph - N/A   Overcast
6:35 AM - - N/A% 30.02 in 1.8 mi ESE 4.6 mph - N/A   Overcast
6:55 AM - - N/A% 30.03 in 1.5 mi Calm Calm - N/A   Overcast
7:15 AM - - N/A% 30.02 in 1.0 mi SE 6.9 mph - N/A   Overcast
7:35 AM - - N/A% 30.02 in 0.8 mi SE 5.8 mph - N/A   Overcast
7:55 AM - - N/A% 30.02 in 0.5 mi SE 6.9 mph - N/A   Overcast
8:15 AM - - N/A% 30.03 in 0.5 mi SE 8.1 mph - N/A   Overcast
8:35 AM - - N/A% 30.03 in 0.5 mi SE 4.6 mph - N/A   Overcast
8:55 AM - - N/A% 30.03 in 0.5 mi SE 6.9 mph - N/A   Overcast
9:15 AM - - N/A% 30.03 in 0.8 mi ESE 4.6 mph - N/A   Overcast
9:35 AM - - N/A% 30.02 in 0.8 mi ESE 3.5 mph - N/A   Overcast
9:55 AM - - N/A% 30.02 in 0.5 mi SE 5.8 mph - N/A   Overcast
10:15 AM - - N/A% 30.02 in 1.2 mi SSE 5.8 mph - N/A   Overcast
10:35 AM - - N/A% 30.01 in 1.2 mi ESE 4.6 mph - N/A   Overcast
10:55 AM - - N/A% 30.01 in 1.2 mi SSE 4.6 mph - N/A   Overcast
11:15 AM - - N/A% 30.00 in 2.0 mi South 5.8 mph - N/A   Overcast
11:35 AM - - N/A% 29.99 in 3.0 mi SSE 5.8 mph - N/A   Overcast
11:55 AM - - N/A% 29.97 in 5.0 mi South 8.1 mph - N/A   Overcast
12:15 PM - - N/A% 29.96 in 5.0 mi South 6.9 mph - N/A   Overcast
12:35 PM - - N/A% 29.95 in 7.0 mi South 9.2 mph - N/A   Overcast
12:55 PM - - N/A% 29.94 in 7.0 mi South 9.2 mph - N/A   Overcast
1:15 PM - - N/A% 29.93 in 7.0 mi SSE 6.9 mph - N/A   Overcast
1:35 PM - - N/A% 29.92 in 6.0 mi SSE 5.8 mph - N/A   Overcast
1:55 PM - - N/A% 29.92 in 7.0 mi SSE 4.6 mph - N/A   Overcast
2:15 PM - - N/A% 29.92 in 7.0 mi SSE 5.8 mph - N/A   Overcast
2:35 PM - - N/A% 29.92 in 10.0 mi South 9.2 mph 17.3 mph N/A   Overcast
2:55 PM - - N/A% 29.93 in 9.0 mi South 8.1 mph - N/A   Overcast
3:15 PM - - N/A% 29.93 in 9.0 mi SSE 11.5 mph 17.3 mph N/A   Overcast
3:35 PM - - N/A% 29.93 in 9.0 mi South 12.7 mph 18.4 mph N/A   Overcast
3:55 PM - - N/A% 29.93 in 10.0 mi SSE 11.5 mph - N/A   Overcast
4:15 PM - - N/A% 29.93 in 10.0 mi South 10.4 mph 18.4 mph N/A   Overcast
4:35 PM - - N/A% 29.93 in 10.0 mi SSE 12.7 mph - N/A   Overcast
4:55 PM - - N/A% 29.93 in 10.0 mi South 11.5 mph - N/A   Overcast
5:15 PM - - N/A% 29.93 in 10.0 mi South 9.2 mph - N/A   Overcast
5:35 PM - - N/A% 29.93 in 10.0 mi South 8.1 mph - N/A   Overcast
5:55 PM - - N/A% 29.94 in 10.0 mi SSE 6.9 mph - N/A   Overcast
6:15 PM - - N/A% 29.94 in 10.0 mi South 5.8 mph - N/A   Overcast
6:35 PM - - N/A% 29.94 in 9.0 mi South 10.4 mph - N/A   Overcast
6:55 PM - - N/A% 29.94 in 7.0 mi South 10.4 mph 19.6 mph N/A   Overcast
7:15 PM - - N/A% 29.94 in 7.0 mi South 12.7 mph 16.1 mph N/A   Overcast
7:35 PM - - N/A% 29.94 in 7.0 mi South 12.7 mph 16.1 mph N/A   Overcast
7:55 PM - - N/A% 29.95 in 8.0 mi South 10.4 mph - N/A   Overcast
8:15 PM - - N/A% 29.95 in 8.0 mi South 10.4 mph 16.1 mph N/A   Overcast
8:35 PM - - N/A% 29.95 in 7.0 mi South 10.4 mph 18.4 mph N/A   Overcast
8:55 PM - - N/A% 29.95 in 6.0 mi South 12.7 mph 17.3 mph N/A   Overcast
9:15 PM - - N/A% 29.96 in 6.0 mi South 11.5 mph 17.3 mph N/A   Overcast
9:35 PM - - N/A% 29.96 in 3.0 mi South 10.4 mph 18.4 mph N/A   Overcast
9:55 PM - - N/A% 29.96 in 4.0 mi South 11.5 mph - N/A   Overcast
10:15 PM - - N/A% 29.97 in 4.0 mi SSW 10.4 mph 16.1 mph N/A   Overcast
10:35 PM - - N/A% 29.97 in 4.0 mi SSW 8.1 mph 18.4 mph N/A   Overcast
10:55 PM - - N/A% 29.97 in 2.5 mi South 8.1 mph 16.1 mph N/A   Overcast
11:15 PM - - N/A% 29.96 in 3.0 mi SSW 10.4 mph 19.6 mph N/A   Overcast
11:35 PM - - N/A% 29.96 in 4.0 mi South 11.5 mph - N/A   Overcast
11:55 PM - - N/A% 29.96 in 5.0 mi SSW 8.1 mph - N/A   Overcast